| time (UTC) | temp C | wind direction | speed KPH | gust KPH | rain 1hr cm | rain 24hr cm | rain mn cm | humidity % | barometer mb |
| 20260505052001 | 11 | 312 | 1.6 | 3.2 | 0.00 | 0.00 | 0.00 | 90 | 1014.1 |
| 20260505051458 | 11 | 311 | 3.2 | 4.8 | 0.00 | 0.00 | 0.00 | 90 | 1013.9 |
| 20260505050956 | 11 | 316 | 1.6 | 11.3 | 0.00 | 0.00 | 0.00 | 89 | 1013.7 |
| 20260505050454 | 11 | 331 | 4.8 | 4.8 | 0.00 | 0.00 | 0.00 | 89 | 1013.8 |
| 20260505041422 | 12 | 277 | 0.0 | 1.6 | 0.00 | 0.00 | 0.00 | 87 | 1013.3 |
| 20260505040919 | 12 | 281 | 1.6 | 3.2 | 0.00 | 0.00 | 0.00 | 86 | 1013.4 |
| 20260505040417 | 12 | 312 | 4.8 | 4.8 | 0.00 | 0.00 | 0.00 | 86 | 1013.2 |
| 20260505035913 | 12 | 329 | 8.0 | 9.7 | 0.00 | 0.00 | 0.00 | 86 | 1013.1 |
| 20260505035409 | 12 | 287 | 1.6 | 4.8 | 0.00 | 0.00 | 0.00 | 85 | 1013.3 |
| 20260505034907 | 12 | 339 | 8.0 | 12.9 | 0.00 | 0.00 | 0.00 | 85 | 1013.5 |
| 20260505034403 | 12 | 312 | 3.2 | 8.0 | 0.00 | 0.00 | 0.00 | 84 | 1013.2 |
| 20260505033900 | 12 | 315 | 6.4 | 8.0 | 0.00 | 0.00 | 0.00 | 83 | 1013.2 |
| 20260505033357 | 12 | 314 | 6.4 | 11.3 | 0.00 | 0.00 | 0.00 | 83 | 1013.2 |
| 20260505032855 | 13 | 307 | 3.2 | 4.8 | 0.00 | 0.00 | 0.00 | 82 | 1012.9 |
| 20260505032351 | 13 | 277 | 3.2 | 9.7 | 0.00 | 0.00 | 0.00 | 82 | 1013.2 |
| 20260505031848 | 13 | 254 | 3.2 | 4.8 | 0.00 | 0.00 | 0.00 | 81 | 1013.0 |
| 20260505031345 | 13 | 282 | 3.2 | 8.0 | 0.00 | 0.00 | 0.00 | 80 | 1013.0 |
| 20260505030842 | 13 | 284 | 1.6 | 4.8 | 0.00 | 0.00 | 0.00 | 79 | 1013.0 |
| 20260505030338 | 13 | 293 | 1.6 | 3.2 | 0.00 | 0.00 | 0.00 | 78 | 1013.1 |
| 20260505025833 | 13 | 295 | 3.2 | 8.0 | 0.00 | 0.00 | 0.00 | 78 | 1013.2 |
| 20260505025331 | 13 | 287 | 4.8 | 9.7 | 0.00 | 0.00 | 0.00 | 77 | 1012.7 |
| 20260505024830 | 14 | 327 | 8.0 | 11.3 | 0.00 | 0.00 | 0.00 | 76 | 1012.8 |
| 20260505024327 | 14 | 272 | 4.8 | 4.8 | 0.00 | 0.00 | 0.00 | 75 | 1013.0 |
| 20260505023824 | 15 | 263 | 4.8 | 9.7 | 0.00 | 0.00 | 0.00 | 75 | 1012.8 |
| 20260505023321 | 15 | 274 | 3.2 | 8.0 | 0.00 | 0.00 | 0.00 | 74 | 1012.8 |
| 20260505022818 | 15 | 267 | 4.8 | 9.7 | 0.00 | 0.00 | 0.00 | 72 | 1012.8 |
| 20260505022315 | 15 | 270 | 3.2 | 4.8 | 0.00 | 0.00 | 0.00 | 71 | 1012.8 |
| 20260505021813 | 15 | 266 | 3.2 | 8.0 | 0.00 | 0.00 | 0.00 | 70 | 1013.0 |
| 20260505021309 | 16 | 293 | 4.8 | 4.8 | 0.00 | 0.00 | 0.00 | 69 | 1012.8 |
| 20260505020805 | 16 | 328 | 1.6 | 4.8 | 0.00 | 0.00 | 0.00 | 68 | 1012.8 |
| 20260505020301 | 16 | 297 | 1.6 | 4.8 | 0.00 | 0.00 | 0.00 | 68 | 1012.8 |
| 20260505015758 | 16 | 67 | 3.2 | 4.8 | 0.00 | 0.00 | 0.00 | 67 | 1012.9 |
| 20260505015255 | 16 | 268 | 4.8 | 4.8 | 0.00 | 0.00 | 0.00 | 68 | 1013.0 |
| 20260505014752 | 16 | 255 | 3.2 | 8.0 | 0.00 | 0.00 | 0.00 | 68 | 1013.0 |
| 20260505014249 | 16 | 261 | 1.6 | 8.0 | 0.00 | 0.00 | 0.00 | 68 | 1013.0 |
| 20260505013745 | 16 | 263 | 1.6 | 9.7 | 0.00 | 0.00 | 0.00 | 69 | 1013.1 |
| 20260505013243 | 16 | 283 | 6.4 | 9.7 | 0.00 | 0.00 | 0.00 | 69 | 1013.3 |
| 20260505012741 | 16 | 292 | 4.8 | 11.3 | 0.00 | 0.00 | 0.00 | 70 | 1013.2 |
| 20260505012238 | 15 | 287 | 3.2 | 11.3 | 0.00 | 0.00 | 0.00 | 70 | 1013.2 |
| 20260505011733 | 16 | 268 | 6.4 | 11.3 | 0.00 | 0.00 | 0.00 | 70 | 1013.2 |
| 20260505011231 | 16 | 143 | 4.8 | 12.9 | 0.00 | 0.00 | 0.00 | 69 | 1013.2 |
| 20260505010726 | 16 | 239 | 8.0 | 11.3 | 0.00 | 0.00 | 0.00 | 69 | 1013.1 |
| 20260505010223 | 16 | 269 | 8.0 | 12.9 | 0.00 | 0.00 | 0.00 | 68 | 1013.0 |
| 20260505005719 | 16 | 250 | 4.8 | 12.9 | 0.00 | 0.00 | 0.00 | 66 | 1013.1 |
| 20260505005217 | 17 | 257 | 6.4 | 12.9 | 0.00 | 0.00 | 0.00 | 65 | 1012.8 |
| 20260505004714 | 17 | 273 | 6.4 | 9.7 | 0.00 | 0.00 | 0.00 | 65 | 1013.0 |
| 20260505004210 | 17 | 289 | 8.0 | 12.9 | 0.00 | 0.00 | 0.00 | 64 | 1013.1 |
| 20260505003707 | 17 | 253 | 8.0 | 16.1 | 0.00 | 0.00 | 0.00 | 63 | 1012.9 |
| 20260505003205 | 17 | 163 | 6.4 | 12.9 | 0.00 | 0.00 | 0.00 | 62 | 1012.9 |
| 20260505002701 | 17 | 290 | 8.0 | 14.5 | 0.00 | 0.00 | 0.00 | 61 | 1012.9 |
| 20260505002159 | 17 | 339 | 6.4 | 12.9 | 0.00 | 0.00 | 0.00 | 62 | 1012.9 |
| 20260505001656 | 17 | 286 | 8.0 | 12.9 | 0.00 | 0.00 | 0.00 | 62 | 1013.1 |
| 20260505001153 | 18 | 31 | 6.4 | 11.3 | 0.00 | 0.00 | 0.00 | 60 | 1013.1 |
| 20260505000650 | 18 | 276 | 6.4 | 9.7 | 0.00 | 0.00 | 0.00 | 62 | 1013.2 |
| 20260505000148 | 18 | 254 | 11.3 | 14.5 | 0.00 | 0.00 | 0.00 | 61 | 1012.8 |
| 20260504235644 | 17 | 258 | 6.4 | 11.3 | 0.00 | 0.00 | 0.00 | 63 | 1013.1 |
| 20260504235141 | 17 | 272 | 6.4 | 12.9 | 0.00 | 0.00 | 0.00 | 65 | 1012.9 |
| 20260504234638 | 17 | 297 | 6.4 | 17.7 | 0.00 | 0.00 | 0.00 | 66 | 1013.1 |
| 20260504234130 | 17 | 280 | 16.1 | 17.7 | 0.00 | 0.00 | 0.00 | 65 | 1013.2 |
| 20260504233625 | 17 | 267 | 6.4 | 14.5 | 0.00 | 0.00 | 0.00 | 64 | 1013.1 |
| 20260504233121 | 17 | 315 | 9.7 | 12.9 | 0.00 | 0.00 | 0.00 | 65 | 1013.1 |
| 20260504232619 | 17 | 260 | 12.9 | 16.1 | 0.00 | 0.00 | 0.00 | 63 | 1013.0 |
| 20260504232116 | 18 | 296 | 8.0 | 9.7 | 0.00 | 0.00 | 0.00 | 63 | 1013.2 |
| 20260504231613 | 18 | 254 | 11.3 | 12.9 | 0.00 | 0.00 | 0.00 | 64 | 1013.1 |
| 20260504231109 | 18 | 293 | 6.4 | 12.9 | 0.00 | 0.00 | 0.00 | 65 | 1013.1 |
| 20260504230604 | 18 | 270 | 9.7 | 14.5 | 0.00 | 0.00 | 0.00 | 65 | 1013.1 |
| 20260504230058 | 18 | 275 | 8.0 | 11.3 | 0.00 | 0.00 | 0.00 | 63 | 1013.1 |
| 20260504225555 | 18 | 254 | 6.4 | 12.9 | 0.00 | 0.00 | 0.00 | 64 | 1013.2 |
| 20260504225052 | 17 | 263 | 8.0 | 12.9 | 0.00 | 0.00 | 0.00 | 65 | 1013.2 |
| 20260504224549 | 17 | 284 | 9.7 | 14.5 | 0.00 | 0.00 | 0.00 | 65 | 1013.6 |
| 20260504224046 | 17 | 268 | 8.0 | 11.3 | 0.00 | 0.00 | 0.00 | 66 | 1013.6 |
| 20260504223543 | 17 | 271 | 6.4 | 17.7 | 0.00 | 0.00 | 0.00 | 69 | 1013.6 |
| 20260504223038 | 17 | 285 | 1.6 | 4.8 | 0.00 | 0.00 | 0.00 | 68 | 1013.7 |
| 20260504222535 | 17 | 281 | 8.0 | 12.9 | 0.00 | 0.00 | 0.00 | 67 | 1013.7 |
| 20260504222033 | 17 | 275 | 4.8 | 9.7 | 0.00 | 0.00 | 0.00 | 68 | 1013.6 |
| 20260504221530 | 17 | 276 | 6.4 | 14.5 | 0.00 | 0.00 | 0.00 | 68 | 1013.8 |
| 20260504221027 | 17 | 274 | 9.7 | 11.3 | 0.00 | 0.00 | 0.00 | 67 | 1013.6 |
| 20260504220523 | 17 | 262 | 4.8 | 9.7 | 0.00 | 0.00 | 0.00 | 67 | 1013.7 |
| 20260504220020 | 17 | 245 | 9.7 | 12.9 | 0.00 | 0.00 | 0.00 | 68 | 1013.5 |
| 20260504215517 | 16 | 284 | 8.0 | 14.5 | 0.00 | 0.00 | 0.00 | 68 | 1013.8 |
| 20260504215014 | 16 | 260 | 4.8 | 12.9 | 0.00 | 0.00 | 0.00 | 70 | 1014.1 |
| 20260504214510 | 17 | 260 | 6.4 | 9.7 | 0.00 | 0.00 | 0.00 | 67 | 1013.8 |
| 20260504214006 | 17 | 281 | 9.7 | 12.9 | 0.00 | 0.00 | 0.00 | 67 | 1013.9 |
| 20260504213503 | 17 | 264 | 1.6 | 11.3 | 0.00 | 0.00 | 0.00 | 67 | 1014.1 |
| 20260504213001 | 16 | 343 | 6.4 | 11.3 | 0.00 | 0.00 | 0.00 | 68 | 1013.9 |
| 20260504212456 | 16 | 320 | 9.7 | 11.3 | 0.00 | 0.00 | 0.00 | 68 | 1014.3 |
| 20260504211954 | 16 | 268 | 4.8 | 11.3 | 0.00 | 0.00 | 0.00 | 68 | 1014.1 |
| 20260504211450 | 16 | 259 | 6.4 | 16.1 | 0.00 | 0.00 | 0.00 | 68 | 1014.1 |
| 20260504210948 | 17 | 283 | 4.8 | 9.7 | 0.00 | 0.00 | 0.00 | 68 | 1014.1 |
| 20260504210444 | 16 | 304 | 6.4 | 9.7 | 0.00 | 0.00 | 0.00 | 68 | 1014.2 |
| 20260504205941 | 17 | 335 | 6.4 | 8.0 | 0.00 | 0.00 | 0.00 | 68 | 1014.3 |
| 20260504205439 | 17 | 268 | 4.8 | 8.0 | 0.00 | 0.00 | 0.00 | 68 | 1014.2 |
| 20260504204937 | 16 | 278 | 1.6 | 8.0 | 0.00 | 0.00 | 0.00 | 67 | 1014.2 |
| 20260504204435 | 16 | 334 | 1.6 | 11.3 | 0.00 | 0.00 | 0.00 | 68 | 1014.4 |
| 20260504203934 | 16 | 208 | 8.0 | 11.3 | 0.00 | 0.00 | 0.00 | 66 | 1014.3 |
| 20260504203431 | 17 | 245 | 8.0 | 12.9 | 0.00 | 0.00 | 0.00 | 64 | 1014.2 |
| 20260504202927 | 17 | 300 | 3.2 | 4.8 | 0.00 | 0.00 | 0.00 | 66 | 1014.3 |
| 20260504202424 | 17 | 270 | 8.0 | 11.3 | 0.00 | 0.00 | 0.00 | 64 | 1014.3 |
| 20260504201920 | 17 | 255 | 4.8 | 9.7 | 0.00 | 0.00 | 0.00 | 66 | 1014.3 |
| 20260504201418 | 17 | 269 | 3.2 | 4.8 | 0.00 | 0.00 | 0.00 | 64 | 1014.2 |
| 20260504200915 | 16 | 207 | 4.8 | 11.3 | 0.00 | 0.00 | 0.00 | 66 | 1014.2 |
| 20260504200412 | 16 | 306 | 1.6 | 11.3 | 0.00 | 0.00 | 0.00 | 66 | 1014.5 |
| 20260504195908 | 16 | 243 | 4.8 | 4.8 | 0.00 | 0.00 | 0.00 | 67 | 1014.4 |
| 20260504195404 | 16 | 273 | 3.2 | 8.0 | 0.00 | 0.00 | 0.00 | 68 | 1014.1 |
| 20260504194901 | 16 | 256 | 4.8 | 8.0 | 0.00 | 0.00 | 0.00 | 66 | 1014.1 |
| 20260504194357 | 17 | 238 | 1.6 | 3.2 | 0.00 | 0.00 | 0.00 | 65 | 1014.3 |
| 20260504193853 | 17 | 276 | 4.8 | 9.7 | 0.00 | 0.00 | 0.00 | 66 | 1014.3 |
| 20260504193350 | 16 | 351 | 3.2 | 4.8 | 0.00 | 0.00 | 0.00 | 64 | 1014.4 |
| 20260504192849 | 16 | 278 | 4.8 | 8.0 | 0.00 | 0.00 | 0.00 | 67 | 1014.4 |
| 20260504192346 | 17 | 84 | 8.0 | 12.9 | 0.00 | 0.00 | 0.00 | 64 | 1014.5 |
| 20260504191844 | 17 | 281 | 3.2 | 4.8 | 0.00 | 0.00 | 0.00 | 62 | 1014.4 |
| 20260504191342 | 17 | 268 | 4.8 | 8.0 | 0.00 | 0.00 | 0.00 | 62 | 1014.3 |
| 20260504190837 | 17 | 258 | 8.0 | 11.3 | 0.00 | 0.00 | 0.00 | 62 | 1014.2 |
| 20260504190333 | 17 | 246 | 8.0 | 11.3 | 0.00 | 0.00 | 0.00 | 57 | 1014.3 |
| 20260504185830 | 18 | 270 | 4.8 | 9.7 | 0.00 | 0.00 | 0.00 | 55 | 1014.2 |
| 20260504185327 | 18 | 231 | 3.2 | 8.0 | 0.00 | 0.00 | 0.00 | 55 | 1014.2 |
| 20260504184823 | 18 | 210 | 9.7 | 11.3 | 0.00 | 0.00 | 0.00 | 53 | 1014.2 |
| 20260504184319 | 18 | 250 | 4.8 | 8.0 | 0.00 | 0.00 | 0.00 | 57 | 1014.2 |
| 20260504183815 | 19 | 277 | 4.8 | 9.7 | 0.00 | 0.00 | 0.00 | 57 | 1014.3 |
| 20260504183313 | 19 | 288 | 6.4 | 8.0 | 0.00 | 0.00 | 0.00 | 56 | 1014.3 |
| 20260504182810 | 19 | 260 | 8.0 | 9.7 | 0.00 | 0.00 | 0.00 | 55 | 1014.2 |
| 20260504182308 | 21 | 237 | 6.4 | 11.3 | 0.00 | 0.00 | 0.00 | 48 | 1014.4 |
| 20260504181805 | 22 | 270 | 11.3 | 12.9 | 0.00 | 0.00 | 0.00 | 46 | 1014.4 |
| 20260504181302 | 23 | 268 | 4.8 | 4.8 | 0.00 | 0.00 | 0.00 | 43 | 1014.1 |
| 20260504180801 | 22 | 219 | 4.8 | 8.0 | 0.00 | 0.00 | 0.00 | 44 | 1014.1 |
| 20260504180259 | 22 | 245 | 6.4 | 8.0 | 0.00 | 0.00 | 0.00 | 43 | 1014.4 |
| 20260504175757 | 22 | 274 | 4.8 | 8.0 | 0.00 | 0.00 | 0.00 | 44 | 1014.2 |
| 20260504175253 | 22 | 224 | 8.0 | 11.3 | 0.00 | 0.00 | 0.00 | 42 | 1014.5 |
| 20260504174751 | 22 | 229 | 4.8 | 8.0 | 0.00 | 0.00 | 0.00 | 44 | 1014.1 |
| 20260504174249 | 23 | 262 | 6.4 | 8.0 | 0.00 | 0.00 | 0.00 | 43 | 1014.0 |
| 20260504173745 | 22 | 229 | 4.8 | 4.8 | 0.00 | 0.00 | 0.00 | 44 | 1014.1 |
| 20260504173242 | 22 | 252 | 4.8 | 4.8 | 0.00 | 0.00 | 0.00 | 43 | 1014.3 |
| 20260504172739 | 23 | 266 | 4.8 | 8.0 | 0.00 | 0.00 | 0.00 | 42 | 1014.4 |
| 20260504172235 | 23 | 268 | 0.0 | 1.6 | 0.00 | 0.00 | 0.00 | 41 | 1014.5 |
| 20260504171731 | 22 | 266 | 1.6 | 3.2 | 0.00 | 0.00 | 0.00 | 43 | 1014.4 |
| 20260504171229 | 22 | 293 | 1.6 | 3.2 | 0.00 | 0.00 | 0.00 | 43 | 1014.8 |
| 20260504170726 | 22 | 248 | 3.2 | 3.2 | 0.00 | 0.00 | 0.00 | 42 | 1014.3 |
| 20260504170223 | 21 | 260 | 0.0 | 1.6 | 0.00 | 0.00 | 0.00 | 43 | 1014.3 |
| 20260504160141 | 20 | 273 | 1.6 | 3.2 | 0.00 | 0.00 | 0.00 | 48 | 1014.1 |
| 20260504151109 | 16 | 277 | 1.6 | 1.6 | 0.00 | 0.00 | 0.00 | 68 | 1013.7 |
| 20260504150606 | 16 | 276 | 0.0 | 1.6 | 0.00 | 0.00 | 0.00 | 70 | 1013.7 |
| 20260504150103 | 15 | 290 | 0.0 | 1.6 | 0.00 | 0.00 | 0.00 | 66 | 1013.7 |
| 20260504141032 | 11 | 321 | 1.6 | 3.2 | 0.00 | 0.00 | 0.00 | 78 | 1013.5 |
| 20260504140528 | 10 | 307 | 1.6 | 3.2 | 0.00 | 0.00 | 0.00 | 79 | 1013.5 |
| 20260504130453 | 9 | 287 | 0.0 | 1.6 | 0.00 | 0.00 | 0.00 | 83 | 1013.2 |
| 20260504110340 | 10 | 288 | 0.0 | 1.6 | 0.00 | 0.00 | 0.00 | 80 | 1012.8 |
| 20260504100257 | 10 | 310 | 1.6 | 3.2 | 0.00 | 0.00 | 0.00 | 77 | 1012.7 |
| 20260504081651 | 11 | 313 | 1.6 | 1.6 | 0.00 | 0.00 | 0.00 | 76 | 1012.5 |
| 20260504081147 | 11 | 293 | 1.6 | 3.2 | 0.00 | 0.00 | 0.00 | 76 | 1012.6 |
| 20260504080643 | 11 | 301 | 1.6 | 1.6 | 0.00 | 0.00 | 0.00 | 76 | 1012.6 |
| 20260504080140 | 11 | 304 | 1.6 | 3.2 | 0.00 | 0.00 | 0.00 | 76 | 1012.5 |
| 20260504070108 | 11 | 328 | 3.2 | 3.2 | 0.00 | 0.00 | 0.00 | 76 | 1013.0 |